Theta_e
329 330 330 330 330 330 330 330 329 329 329 329 329 329 329 329 329 329 328 328 328 328 328 328 328 328 328 328 328 328 327 327 326 326 326 325 325 325 325 325 324 324
327 328 329 329 329 330 330 330 330 329 329 329 329 329 329 329 328 328 328 328 327 327 327 327 328 328 328 328 328 328 327 326 326 326 326 325 325 325 325 325 325 325
321 323 325 327 328 328 329 329 329 328 328 328 328 328 328 328 328 327 327 327 327 327 327 327 327 327 327 327 327 327 327 326 326 326 325 325 325 325 325 325 325 325
315 317 319 321 323 324 325 326 327 327 327 327 327 327 327 327 327 327 327 326 326 326 326 326 326 326 327 327 327 327 327 326 326 326 325 325 325 325 325 325 325 325
312 313 314 315 317 318 319 321 322 323 324 325 325 326 326 326 326 326 326 326 326 326 325 326 325 325 326 326 326 326 326 326 326 325 325 325 325 325 325 325 326 326
311 312 312 313 314 314 315 316 317 317 318 319 320 321 322 323 324 324 325 325 325 325 325 325 325 325 325 325 326 326 325 326 325 325 325 325 325 325 326 326 326 326
311 312 313 313 314 314 315 315 315 315 316 316 316 317 317 319 320 322 322 323 323 324 324 324 324 325 325 325 325 325 325 325 325 325 325 325 326 326 326 326 325 324
310 311 312 313 314 315 315 315 316 316 316 316 316 316 316 316 318 319 321 322 323 323 323 324 324 324 324 325 325 325 325 325 325 325 325 325 325 326 325 324 323 322
309 309 310 311 312 314 315 315 315 316 316 317 317 317 316 317 317 318 320 322 323 324 323 323 324 324 324 324 324 324 325 325 325 325 326 325 325 324 323 322 321 319
309 308 308 310 311 312 313 314 314 314 314 315 315 316 316 316 317 319 321 323 323 323 323 323 323 323 324 324 324 325 325 325 325 325 325 324 323 322 321 320 319 316
309 308 308 308 310 310 310 311 312 313 313 314 315 315 315 315 316 319 322 323 323 324 324 323 323 323 323 324 324 325 324 324 323 322 322 321 320 319 317 316 315 313
307 308 307 308 309 309 309 310 311 313 314 315 316 316 316 316 317 319 321 322 323 323 323 323 323 323 323 324 324 323 322 321 321 319 318 317 315 313 312 311 311 310
305 307 307 307 308 309 309 309 310 312 314 315 316 316 317 318 318 319 320 322 322 322 322 322 323 323 323 323 322 321 320 319 318 316 313 311 309 308 307 307 305 304
304 305 306 306 307 308 308 308 309 311 312 314 315 316 317 317 318 318 320 321 322 322 322 322 322 322 322 321 319 318 318 316 314 313 310 307 305 302 300 299 297 295
302 304 305 306 306 307 307 307 307 308 310 312 313 314 315 316 316 317 318 319 320 319 319 319 319 318 318 319 317 316 315 312 309 308 307 303 298 295 292 291 290 288
301 303 304 305 305 306 306 306 306 307 309 310 311 312 313 314 314 315 315 314 315 314 314 314 314 314 315 316 316 314 311 307 303 300 299 296 292 290 288 287 286 286
300 302 303 304 304 304 305 305 306 307 307 308 309 310 311 312 312 313 313 312 312 312 312 313 313 313 313 313 313 311 309 306 301 296 293 291 290 288 286 285 285 285
299 300 302 303 303 303 304 305 305 305 305 306 307 308 308 309 309 310 311 312 312 312 312 312 310 309 309 310 311 310 308 305 300 294 290 289 288 287 286 285 285 284
298 299 301 302 302 303 304 304 304 303 303 304 304 305 305 306 306 306 307 308 310 310 309 307 305 304 306 308 308 306 305 302 296 292 289 287 286 286 286 285 285 285
297 298 300 301 302 302 303 302 301 301 301 301 301 302 302 302 303 303 303 303 304 305 304 300 298 299 303 305 302 300 300 297 292 289 288 287 286 287 286 286 286 285
297 298 299 300 301 301 301 300 299 299 299 299 299 299 300 299 299 299 299 299 299 299 298 295 293 295 297 298 297 295 294 292 289 287 287 286 286 286 286 285 285 286
296 297 298 299 300 300 299 298 298 297 297 297 297 298 298 297 297 296 295 295 294 295 294 292 291 292 293 294 294 293 290 288 287 287 287 286 286 285 284 284 285 285
295 296 297 298 299 299 298 297 297 296 295 295 296 296 295 295 294 293 293 293 292 292 292 290 289 290 291 291 291 290 288 287 287 287 286 285 284 284 283 283 284 284
295 295 296 297 298 298 297 297 296 295 294 294 294 294 293 292 292 291 290 290 290 290 289 288 288 288 289 289 288 288 288 287 287 286 285 283 283 282 282 283 283 283
294 294 295 295 296 297 297 296 295 294 293 292 292 292 290 289 289 289 288 288 288 288 287 287 287 287 287 288 288 288 288 287 287 285 284 282 282 282 282 283 283 283
294 294 294 294 296 296 295 295 294 292 291 290 290 289 288 288 287 287 286 286 286 286 286 286 286 286 287 287 288 288 288 287 287 286 284 282 282 282 283 282 283 283
Wind_Speed
28 29 31 31 31 32 32 32 31 31 31 31 31 32 33 33 32 31 30 30 30 30 30 30 31 31 31 31 31 32 32 31 31 30 29 29 28 28 28 28 27 27
24 26 28 29 31 32 33 33 33 32 32 33 33 34 33 33 32 31 31 30 29 30 30 29 30 30 30 30 30 31 31 31 30 30 29 29 28 28 28 28 27 27
19 22 24 26 29 30 31 31 31 31 32 32 33 33 33 32 31 30 30 29 29 29 29 29 30 30 30 30 29 30 30 30 30 30 29 29 28 28 28 27 27 27
20 19 20 22 24 26 27 28 29 30 30 31 32 32 32 32 31 30 30 30 29 30 29 30 30 30 30 30 29 30 30 30 29 28 28 28 28 27 27 27 26 25
22 21 20 20 21 22 23 25 27 28 29 30 31 31 31 31 31 31 31 30 30 30 30 30 31 30 30 30 30 30 29 29 28 27 27 27 26 26 26 25 24 24
23 21 21 21 21 21 22 23 24 25 26 28 28 29 29 30 30 30 30 30 30 30 31 31 31 31 31 30 30 30 29 28 27 27 27 26 26 25 24 24 24 24
23 22 21 20 20 20 21 22 23 24 25 26 27 27 27 28 29 29 29 30 30 30 30 30 30 30 30 29 29 28 27 27 26 26 26 26 25 24 23 24 23 20
24 23 22 21 21 20 20 20 21 22 22 23 25 26 26 27 28 28 28 28 29 30 29 29 29 29 29 28 27 27 26 26 26 25 26 26 25 23 22 20 19 17
26 24 22 22 22 21 20 20 19 19 19 20 22 23 24 25 26 26 26 27 28 28 28 28 27 27 26 26 26 26 26 26 26 26 26 25 24 22 20 19 18 18
29 26 24 23 22 22 21 20 18 18 17 18 19 19 19 20 22 23 24 24 26 26 26 26 26 25 24 24 24 25 26 26 25 25 24 22 21 20 20 21 22 23
31 29 26 24 23 22 21 19 18 17 17 17 17 17 17 17 17 18 20 21 23 23 24 24 23 22 22 22 23 24 24 24 23 21 20 20 20 21 23 25 26 27
34 30 28 26 24 22 20 19 18 17 16 16 16 15 15 16 16 16 17 18 19 20 20 20 20 19 20 21 22 22 22 21 20 19 20 20 21 23 25 26 27 27
35 32 29 26 24 22 19 18 18 17 17 16 16 15 15 15 15 15 15 15 16 17 17 17 18 19 21 22 22 23 22 21 20 21 22 23 24 25 26 26 26 26
36 33 29 26 24 21 19 18 18 17 18 17 16 15 15 15 15 15 15 15 16 17 17 18 19 21 23 23 24 24 23 23 23 25 27 28 28 28 28 27 27 26
36 31 28 25 22 20 19 19 18 17 17 16 15 15 15 15 15 15 16 16 16 17 18 19 21 23 25 25 25 24 25 26 29 31 33 34 34 32 31 29 29 28
35 31 27 24 21 19 19 20 19 17 16 15 14 13 13 13 13 13 14 14 14 14 15 16 18 21 23 24 23 25 29 32 34 35 36 37 37 36 34 31 30 29
35 30 26 23 20 18 18 19 19 17 16 14 13 12 12 11 11 11 12 12 13 14 16 17 19 20 21 23 25 29 33 35 35 35 36 37 37 37 36 33 31 29
35 30 25 22 20 18 17 18 18 17 15 14 12 12 11 11 12 13 14 15 15 16 17 19 21 23 26 28 31 33 34 35 36 36 36 36 35 36 35 33 31 28
35 29 25 22 19 17 16 16 17 16 14 13 11 11 10 11 12 13 14 15 15 14 16 19 23 26 29 31 33 34 34 35 36 37 36 36 35 34 33 31 29 28
33 28 25 22 19 17 16 15 15 15 13 11 10 9 9 10 11 12 12 14 15 16 19 23 25 27 30 32 34 36 35 36 36 37 36 34 33 32 30 28 27 26
33 29 25 22 19 17 15 15 14 13 12 11 10 10 10 11 11 12 14 16 18 22 25 26 26 29 33 35 36 37 37 37 38 37 36 33 31 30 28 26 24 23
32 29 26 22 19 17 15 14 14 13 12 12 11 11 12 13 14 15 18 21 23 25 28 28 27 30 33 35 36 37 37 38 38 37 35 32 29 27 25 23 22 21
32 29 27 23 20 18 16 15 15 14 13 13 14 15 15 16 17 19 20 23 25 27 29 29 28 29 32 34 35 37 38 38 37 36 34 32 28 25 24 22 20 19
32 29 27 25 21 20 18 17 16 15 15 15 16 18 18 19 21 22 22 24 26 28 31 32 30 29 32 34 34 35 36 37 37 36 34 31 29 26 24 22 20 18
32 29 27 26 23 21 20 19 18 17 17 17 18 20 21 21 23 24 24 23 25 27 31 33 32 31 32 33 33 33 33 34 35 35 34 31 29 28 25 23 20 18
32 29 27 26 25 23 21 20 20 19 19 19 20 22 23 24 25 27 26 24 24 26 27 30 32 32 31 31 32 31 31 30 30 31 32 31 28 27 26 24 21 18
Wind_Direction
252 250 250 250 251 252 255 257 257 257 258 260 261 262 264 266 267 265 263 262 261 260 260 260 260 259 258 256 254 251 249 247 247 247 245 242 240 240 239 239 239 237
264 259 257 256 256 257 258 260 261 260 261 263 264 266 267 267 268 266 265 264 262 261 261 261 260 259 258 256 253 251 248 246 245 245 243 241 240 238 238 239 239 238
288 275 268 264 263 263 263 263 264 264 264 266 266 267 269 270 270 269 268 266 264 264 263 261 260 259 258 257 254 251 248 246 244 244 242 240 239 238 238 239 238 238
312 301 289 279 274 271 270 269 268 268 269 269 270 271 272 272 272 272 271 269 267 266 264 262 260 258 258 257 254 251 248 246 246 244 241 239 238 237 238 238 237 237
316 312 306 298 291 285 280 276 274 274 274 273 275 275 275 274 273 272 271 269 268 266 265 263 261 258 256 255 251 248 245 244 243 242 238 237 237 237 237 236 237 239
319 314 310 305 299 294 289 284 281 280 279 278 278 277 276 275 273 272 270 269 267 266 263 261 260 258 256 252 248 245 241 240 239 238 235 235 236 236 237 237 237 237
322 319 315 309 304 298 293 289 286 284 282 281 279 278 277 276 274 272 271 270 269 266 263 261 258 257 254 250 245 241 239 237 236 234 232 232 233 235 236 236 232 224
321 319 316 312 308 303 298 294 290 287 284 282 280 278 277 276 274 274 272 271 269 266 264 261 257 255 252 247 242 238 236 234 232 231 230 229 228 228 228 224 216 204
319 317 315 310 307 304 300 298 295 293 291 288 286 283 279 275 273 272 270 268 267 265 263 260 256 253 248 243 239 235 232 231 229 227 225 223 219 215 211 203 193 182
316 315 313 309 307 305 303 303 303 304 303 301 299 297 292 285 277 272 268 264 263 262 259 256 252 248 244 240 237 234 230 226 222 219 216 212 206 198 192 186 178 166
313 313 311 308 307 306 307 308 308 308 307 306 305 304 304 302 293 282 272 264 260 259 255 250 247 243 239 234 230 227 221 213 205 199 194 189 185 181 176 171 164 155
312 310 310 308 306 305 306 307 306 303 301 300 297 297 300 301 296 286 275 267 262 257 252 246 241 236 229 222 216 210 201 191 182 176 170 167 165 162 159 155 150 145
311 309 307 306 304 303 303 304 303 299 296 292 288 286 286 287 283 273 265 263 261 253 245 238 229 220 212 205 197 189 181 172 166 161 153 149 146 143 141 139 136 133
312 308 304 302 302 300 300 301 300 296 292 287 281 277 275 272 266 255 247 245 246 240 230 222 213 205 199 190 178 170 166 160 157 152 144 136 132 128 126 125 123 123
310 305 300 298 297 296 297 299 298 293 289 284 276 270 266 262 255 245 234 227 224 219 209 202 197 188 182 177 169 162 157 151 146 142 137 132 127 122 120 119 119 119
308 304 297 294 292 291 295 298 295 289 284 279 272 263 256 251 246 237 227 217 208 199 190 184 180 174 171 171 169 162 153 144 136 133 132 130 127 124 121 119 117 116
308 303 294 289 287 286 291 294 290 283 277 272 266 257 245 234 224 215 208 198 185 173 166 164 162 164 167 167 162 155 149 143 136 132 130 129 129 127 124 120 117 115
309 301 289 284 282 281 286 286 280 275 270 263 257 249 238 221 205 192 181 175 169 161 157 156 154 155 158 156 152 150 147 142 138 135 131 129 129 127 124 121 119 116
308 298 285 279 276 274 278 277 270 265 260 254 248 239 229 216 203 189 177 173 174 171 162 155 152 153 153 151 148 148 146 141 138 137 134 131 129 127 124 123 121 119
305 294 281 274 269 268 269 267 261 256 250 243 237 225 213 203 195 188 178 171 171 167 156 148 147 150 151 149 146 144 143 140 138 136 133 130 127 126 126 125 124 121
304 291 277 268 262 259 259 256 252 247 239 229 216 202 193 184 174 167 159 151 149 148 142 137 140 146 147 146 144 142 141 139 136 132 129 126 123 124 125 124 122 121
304 291 275 263 254 250 248 245 241 236 227 212 196 182 173 165 156 149 144 138 136 137 134 131 136 145 146 145 143 142 140 137 133 129 125 122 121 122 121 119 119 119
304 290 274 259 248 242 238 234 232 225 212 197 182 168 159 153 147 143 139 136 134 133 131 131 135 143 145 142 142 143 141 136 131 127 123 120 118 117 116 115 115 115
302 290 273 256 243 236 231 227 222 213 199 186 175 162 151 147 144 139 136 136 134 134 134 133 135 141 144 142 142 144 142 138 134 129 124 120 117 115 112 111 110 109
300 288 272 254 240 232 226 220 213 203 189 177 168 156 146 142 139 135 131 131 132 134 136 136 137 142 146 146 145 145 143 141 138 131 125 121 119 116 112 108 106 104
298 286 270 252 238 228 221 213 204 192 180 169 160 150 142 138 135 132 129 127 129 132 135 137 139 143 147 149 148 148 146 145 142 135 130 126 122 120 116 111 107 104